カタログに戻る

RASSVET-3 15

運用中科学PO
NORAD 68374·PAYLOAD·🇷🇺 Russia

打ち上げ Mar 23, 2026 から Plesetsk Cosmodrome

Loading…

次のパス (今後24時間)

TLE

最新Source: Space-Track

元期: Sep 14, 2026, 12:33 UTC

1 68374U 26061Q   26257.52294755  .00006656  00000-0  32220-3 0  9999
2 68374  82.2918 280.1289 0003664 102.6455 257.5188 15.18407970 27188

AllMySatでRASSVET-3 15をリアルタイム追跡

Download on the App Store